Weather in Plekhany

Russia / Saratov Oblast     51°58′13″N   47°21′39″E
temp.,
°C
wind,
m/s
gust,
m/s
humid.,
%
clouds,
%
prec.,
mm/h
press.,
hPa
HPBL,
m
25 february, thu
thu2501:00−24nw228897 0.0 103820
04:00−23wnw128682 0.0 103720
07:00−23wsw1286100 0.0 103521
10:00−20ssw3585100 0.0 1033235
13:00−17s5896100 0.3 1030380
16:00−14ssw81395100 1.8 1026580
19:00−12ssw71494100 2.3 1022691
22:00−10ssw61295100 3.6 1018546
26 february, fri
fri2601:00−9ssw4995100 0.8 1015326
04:00−8ssw2297100 1.2 101448
07:00−6sse1196100 0.2 101332
10:00−3sse119799 0.3 101338
13:000s22100100 0.3 101296
16:00+1ssw34100100 0.4 1011130
19:00+1ssw49100100 0.8 1008237
22:00+2sw513100100 1.9 1006372
27 february, sat
sat2701:00+2wsw61499100 1.4 1003455
04:00+2w61498100 1.4 1003458
07:00+1w6139076 0.0 1003507
10:00+1wsw6119584 0.0 1003603
13:00+1wsw510100100 0.1 1003530
16:00+1wsw611100100 0.1 1002514
19:000wsw6109698 0.1 1001523
22:00−2wsw4109696 0.1 1001245
28 february, sun
sun2801:000sw6119899 0.4 1001564
04:00−7wnw61091100 0.8 1003373
07:00−11nw6129064 0.0 1004375
10:00−11nnw6109170 0.1 1007485
13:00−9nw689099 0.1 1009539
16:00−8nnw5888100 0.1 1011587
19:00−11nw499199 0.0 1014218
22:00−14nnw369186 0.0 1016102
1 march, mon
mon101:00−16nnw359216 0.0 101890
04:00−18nw35928 0.0 102093
07:00−19nnw35920 0.0 102298
10:00−17nnw36880 0.0 1023306
13:00−13nnw348522 0.0 1024405
16:00−12nw358757 0.0 1024426
19:00−15w339221 0.0 102436
22:00−16w339310 0.0 102434